{"data":{"norad_id":66029,"epoch":"2026-09-20T05:40:45.042816Z","epoch_age_seconds":125755,"freshness":"FRESH","line1":"1 66029U 25232AA  26263.23663244  .00009192  00000+0  28280-3 0  9999","line2":"2 66029  53.1590 277.2640 0000833  81.6358 278.4739 15.34405194 53263","mean_motion":15.34405194,"eccentricity":8.33e-5,"inclination_deg":53.159,"raan_deg":277.264,"arg_perigee_deg":81.6358,"mean_anomaly_deg":278.4739,"bstar":0.0002828,"rev_number":5326,"period_min":93.847440404324,"perigee_km":462.11796188201,"apogee_km":463.25764329412,"semimajor_km":6840.8248025881,"source":"CELESTRAK","updated_at":"2026-09-21T09:00:35.773205Z"}}